Hourly Weather Pryvar

Today, 13 July, Monday

Time Temperature Precipitation Wind Pressure Humidity
00:00 +12°C° 1.1 mm 5 mps 750 mmHg 94%
01:00 +12°C° 1.1 mm 4 mps 750 mmHg 94%
02:00 +12°C° 1.1 mm 4 mps 750 mmHg 94%
03:00 +12°C° 0.3 mm 4 mps 750 mmHg 94%
04:00 +11°C° 0.3 mm 4 mps 750 mmHg 94%
05:00 +11°C° 0.3 mm 4 mps 749 mmHg 94%
06:00 +12°C° 0.1 mm 4 mps 749 mmHg 92%
07:00 +13°C° 0.1 mm 5 mps 750 mmHg 89%
08:00 +14°C° 0.1 mm 5 mps 750 mmHg 86%
09:00 +15°C° 0.1 mm 5 mps 749 mmHg 78%
10:00 +17°C° 0.1 mm 6 mps 749 mmHg 71%
11:00 +19°C° 0.1 mm 6 mps 749 mmHg 63%
12:00 +19°C° 0.2 mm 6 mps 749 mmHg 62%
13:00 +20°C° 0.2 mm 6 mps 749 mmHg 62%
14:00 +20°C° 0.2 mm 6 mps 749 mmHg 61%
15:00 +20°C° 0.1 mm 5 mps 749 mmHg 63%
16:00 +19°C° 0.1 mm 5 mps 748 mmHg 64%
17:00 +19°C° 0.1 mm 5 mps 748 mmHg 65%
18:00 +17°C° 0.2 mm 5 mps 748 mmHg 71%
19:00 +17°C° 0.2 mm 4 mps 748 mmHg 76%
20:00 +14°C° 0.2 mm 4 mps 748 mmHg 82%
21:00 +14°C° 0 mm 4 mps 748 mmHg 83%
22:00 +13°C° 0 mm 4 mps 748 mmHg 85%
23:00 +12°C° 0 mm 4 mps 748 mmHg 87%

Tomorrow, 14 July, Tuesday

Time Temperature Precipitation Wind Pressure Humidity
00:00 +12°C° 0 mm 4 mps 748 mmHg 88%
01:00 +12°C° 0 mm 4 mps 748 mmHg 90%
02:00 +11°C° 0 mm 4 mps 748 mmHg 91%
03:00 +11°C° 0 mm 4 mps 747 mmHg 90%
04:00 +11°C° 0 mm 4 mps 747 mmHg 90%
05:00 +11°C° 0 mm 4 mps 747 mmHg 89%
06:00 +13°C° 0 mm 4 mps 747 mmHg 83%
07:00 +14°C° 0 mm 5 mps 747 mmHg 77%
08:00 +16°C° 0 mm 5 mps 747 mmHg 70%
09:00 +17°C° 0 mm 5 mps 747 mmHg 66%
10:00 +19°C° 0 mm 5 mps 747 mmHg 62%
11:00 +21°C° 0 mm 6 mps 747 mmHg 57%
12:00 +21°C° 0.1 mm 5 mps 747 mmHg 56%
13:00 +21°C° 0.1 mm 5 mps 747 mmHg 55%
14:00 +21°C° 0.1 mm 5 mps 746 mmHg 54%
15:00 +21°C° 0 mm 5 mps 746 mmHg 56%
16:00 +21°C° 0 mm 4 mps 746 mmHg 58%
17:00 +21°C° 0 mm 4 mps 746 mmHg 60%
18:00 +19°C° 0 mm 4 mps 746 mmHg 65%
19:00 +18°C° 0 mm 3 mps 746 mmHg 70%
20:00 +17°C° 0 mm 3 mps 746 mmHg 76%
21:00 +16°C° 0 mm 3 mps 746 mmHg 79%
22:00 +14°C° 0 mm 3 mps 746 mmHg 83%
23:00 +14°C° 0 mm 4 mps 746 mmHg 87%

Day after tomorrow, 15 July, Wednesday

Time Temperature Precipitation Wind Pressure Humidity
00:00 +13°C° 0 mm 3 mps 747 mmHg 89%
01:00 +13°C° 0 mm 3 mps 747 mmHg 91%
02:00 +12°C° 0 mm 3 mps 747 mmHg 93%
03:00 +12°C° 0 mm 3 mps 747 mmHg 92%
04:00 +12°C° 0 mm 3 mps 747 mmHg 92%
05:00 +12°C° 0 mm 3 mps 747 mmHg 92%
06:00 +14°C° 0 mm 3 mps 747 mmHg 85%
07:00 +15°C° 0 mm 4 mps 747 mmHg 78%
08:00 +18°C° 0 mm 4 mps 747 mmHg 71%
09:00 +19°C° 0 mm 4 mps 747 mmHg 63%
10:00 +21°C° 0 mm 4 mps 747 mmHg 56%
11:00 +22°C° 0 mm 4 mps 747 mmHg 48%
12:00 +23°C° 0 mm 4 mps 747 mmHg 48%
13:00 +23°C° 0 mm 4 mps 747 mmHg 48%
14:00 +23°C° 0 mm 4 mps 747 mmHg 48%
15:00 +23°C° 0 mm 4 mps 747 mmHg 50%
16:00 +24°C° 0 mm 3 mps 747 mmHg 53%
17:00 +22°C° 0 mm 3 mps 747 mmHg 55%
18:00 +21°C° 0 mm 3 mps 747 mmHg 61%
19:00 +19°C° 0 mm 2 mps 747 mmHg 68%
20:00 +18°C° 0 mm 1 mps 748 mmHg 74%
21:00 +18°C° 0 mm 1 mps 748 mmHg 77%
22:00 +16°C° 0 mm 1 mps 748 mmHg 80%
23:00 +15°C° 0 mm 1 mps 748 mmHg 83%

16 July, Thursday

Time Temperature Precipitation Wind Pressure Humidity
00:00 +15°C° 0 mm 1 mps 748 mmHg 86%
01:00 +14°C° 0 mm 1 mps 748 mmHg 88%
02:00 +14°C° 0 mm 1 mps 748 mmHg 90%
03:00 +14°C° 0 mm 1 mps 748 mmHg 90%
04:00 +14°C° 0 mm 1 mps 748 mmHg 90%
05:00 +14°C° 0 mm 1 mps 748 mmHg 90%
06:00 +16°C° 0 mm 1 mps 748 mmHg 83%
07:00 +19°C° 0 mm 1 mps 748 mmHg 76%
08:00 +21°C° 0 mm 1 mps 748 mmHg 68%
09:00 +23°C° 0 mm 1 mps 748 mmHg 63%
10:00 +24°C° 0 mm 1 mps 748 mmHg 57%
11:00 +26°C° 0 mm 1 mps 748 mmHg 51%
12:00 +26°C° 0.2 mm 1 mps 748 mmHg 52%
13:00 +26°C° 0.2 mm 1 mps 748 mmHg 52%
14:00 +26°C° 0.2 mm 1 mps 748 mmHg 52%
15:00 +26°C° 0.1 mm 1 mps 748 mmHg 53%
16:00 +26°C° 0.1 mm 1 mps 747 mmHg 54%
17:00 +25°C° 0.1 mm 1 mps 747 mmHg 55%
18:00 +24°C° 0 mm 1 mps 747 mmHg 61%
19:00 +20°C° 0 mm 0 mps 747 mmHg 68%
20:00 +18°C° 0 mm 0 mps 747 mmHg 74%
21:00 +17°C° 0 mm 0 mps 747 mmHg 76%
22:00 +17°C° 0 mm 0 mps 747 mmHg 78%
23:00 +16°C° 0 mm 0 mps 748 mmHg 81%

17 July, Friday

Time Temperature Precipitation Wind Pressure Humidity
00:00 +16°C° 0 mm 1 mps 748 mmHg 82%
01:00 +16°C° 0 mm 1 mps 747 mmHg 84%
02:00 +16°C° 0 mm 1 mps 747 mmHg 85%
03:00 +16°C° 0 mm 1 mps 747 mmHg 85%
04:00 +15°C° 0 mm 0 mps 747 mmHg 85%
05:00 +15°C° 0 mm 0 mps 747 mmHg 84%
06:00 +17°C° 0 mm 0 mps 748 mmHg 78%
07:00 +19°C° 0 mm 0 mps 748 mmHg 71%
08:00 +23°C° 0 mm 1 mps 748 mmHg 64%
09:00 +23°C° 0 mm 0 mps 748 mmHg 59%
10:00 +24°C° 0 mm 0 mps 748 mmHg 55%
11:00 +26°C° 0 mm 0 mps 748 mmHg 50%
12:00 +26°C° 0 mm 0 mps 748 mmHg 49%
13:00 +26°C° 0 mm 0 mps 748 mmHg 47%
14:00 +26°C° 0 mm 0 mps 748 mmHg 45%
15:00 +28°C° 0 mm 1 mps 748 mmHg 47%
16:00 +28°C° 0 mm 1 mps 747 mmHg 48%
17:00 +27°C° 0 mm 1 mps 747 mmHg 50%
18:00 +26°C° 0 mm 1 mps 747 mmHg 57%
19:00 +24°C° 0 mm 2 mps 747 mmHg 64%
20:00 +21°C° 0 mm 2 mps 748 mmHg 71%
21:00 +20°C° 0 mm 2 mps 748 mmHg 74%
22:00 +19°C° 0 mm 2 mps 748 mmHg 76%
23:00 +18°C° 0 mm 2 mps 748 mmHg 79%

18 July, Saturday

Time Temperature Precipitation Wind Pressure Humidity
00:00 +18°C° 0 mm 2 mps 748 mmHg 80%
01:00 +17°C° 0 mm 2 mps 748 mmHg 82%
02:00 +17°C° 0 mm 2 mps 748 mmHg 84%
03:00 +17°C° 0.1 mm 2 mps 748 mmHg 86%
04:00 +17°C° 0.1 mm 2 mps 748 mmHg 87%
05:00 +17°C° 0.1 mm 2 mps 748 mmHg 89%
06:00 +18°C° 0.5 mm 2 mps 748 mmHg 91%
07:00 +18°C° 0.5 mm 2 mps 748 mmHg 93%
08:00 +18°C° 0.5 mm 2 mps 748 mmHg 95%
09:00 +18°C° 0.5 mm 2 mps 748 mmHg 95%
10:00 +18°C° 0.5 mm 2 mps 748 mmHg 95%
11:00 +18°C° 0.5 mm 2 mps 748 mmHg 95%
12:00 +18°C° 1 mm 2 mps 748 mmHg 94%
13:00 +18°C° 1 mm 3 mps 748 mmHg 94%
14:00 +18°C° 1 mm 3 mps 748 mmHg 94%
15:00 +18°C° 1.8 mm 3 mps 748 mmHg 95%
16:00 +17°C° 1.8 mm 3 mps 748 mmHg 95%
17:00 +17°C° 1.8 mm 3 mps 748 mmHg 96%
18:00 +17°C° 0.9 mm 2 mps 748 mmHg 96%
19:00 +16°C° 0.9 mm 2 mps 748 mmHg 96%
20:00 +16°C° 0.9 mm 2 mps 748 mmHg 96%
21:00 +15°C° 0.1 mm 2 mps 748 mmHg 96%
22:00 +15°C° 0.1 mm 1 mps 748 mmHg 96%
23:00 +14°C° 0.1 mm 1 mps 749 mmHg 96%
Show more